Weather Roundup
Issued by NWS

Home | Current Version | Previous Version | Text Only | Print | Product List | Glossary On
Versions: 1 2 3 4 5 6 7 8 9 10 11 12 13 14 15 16 17 18 19 20 21 22 23 24 25 26 27 28 29 30 31 32 33 34 35 36 37 38 39 40 41 42 43 44 45 46 47 48 49 50
000
NZUS93 KARX 301510
HRRWXR

CURRENT HOURLY OBSERVATIONS ACROSS
MUCH OF THE UPPER MISSISSIPPI VALLEY
NATIONAL WEATHER SERVICE LA CROSSE WI
1000 AM CDT SAT AUG 30 2014


...SOUTHEAST MINNESOTA...


CITY           SKY/WX    TMP DP  RH WIND       PRES   REMARKS
ROCHESTER      CLOUDY    71  65  81 NW10      29.85R
ROCHESTER/MAYO CLOUDY    68  64  88 NW9G21    29.83S
WINONA         CLOUDY    70  68  94 NW5       29.80R FOG
AUSTIN         CLOUDY    70  64  83 NW9       29.84S
ALBERT LEA     CLOUDY    70  66  88 NW5       29.86R
DODGE CENTER   CLOUDY    70  64  83 N10       29.84S
PRESTON        CLOUDY    67  67 100 NW3       29.84R
OWATONNA       MOSUNNY   70  63  78 NW9       29.85R
FARIBAULT      MOSUNNY   73  63  68 N6        29.85R
$$

...ELSEWHERE IN MINNESOTA...


CITY           SKY/WX    TMP DP  RH WIND       PRES   REMARKS
MINNEAPOLIS    MOSUNNY   70  63  78 N8        29.84R
INTNL FALLS    MOSUNNY   62  53  72 NE9       29.93R
DULUTH         CLOUDY    64  60  87 N8        29.86S
RED WING       CLOUDY    68  64  88 NW5       29.81R
REDWOOD FALLS  CLOUDY    64  63  96 W12       29.89R FOG
MANKATO        CLOUDY    68  64  88 NW8       29.86R
WORTHINGTON    CLOUDY    64  63  94 N6        29.93S
FAIRMONT       CLOUDY    64  55  72 NW8       29.88S
$$

...SOUTHWEST WISCONSIN...


CITY           SKY/WX    TMP DP  RH WIND       PRES   REMARKS
LA CROSSE      CLOUDY    72  67  84 NW12      29.78R
PRAIRIE DU CHI CLOUDY    69  66  91 W5        29.80R
BOSCOBEL       LGT RAIN  71  67  87 VRB6      29.80R FOG
LONE ROCK      CLOUDY    77  67  71 W7        29.78R
PLATTEVILLE    CLOUDY    69  67  94 SW10      29.83R
FORT MC COY    RAIN      67  66  97 NW3       29.79R
CAMP DOUGLAS   LGT RAIN  68  68 100 NW5       29.79R FOG
VIROQUA        CLOUDY    68  68 100 W8        29.81R
WIS DELLS      CLOUDY    71  65  82 W7        29.78R
$$

...ELSEWHERE IN WISCONSIN...


CITY           SKY/WX    TMP DP  RH WIND       PRES   REMARKS
MILWAUKEE      MOSUNNY   77  65  66 SW17      29.81S
MADISON        LGT RAIN  72  66  81 S12       29.78S
GREEN BAY      PTSUNNY   74  68  81 SW13G21   29.73S
EAU CLAIRE     PTSUNNY   70  66  87 N6        29.79S
BLACK RVR FLS  RAIN      67  67 100 CALM      29.79R
MEDFORD        CLOUDY    67  65  93 NW5       29.80R
WAUSAU         CLOUDY    68  65  90 NW7       29.77R
WIS RAPIDS     CLOUDY    69  66  90 NW7       29.79R
MARSHFIELD     PTSUNNY   70  65  84 W10       29.78S
RICE LAKE      LGT RAIN  64  62  91 N9        29.83S
$$

...NORTHEAST IOWA...


CITY           SKY/WX    TMP DP  RH WIND       PRES   REMARKS
WATERLOO       CLOUDY    71  67  87 W10       29.84R
DUBUQUE        CLOUDY    70  67  90 W13       29.83R
DECORAH        CLOUDY    70  66  88 NW8       29.82R
MASON CITY     CLOUDY    70  67  90 NW10      29.88R
CHARLES CITY   CLOUDY    70  66  88 NW10      29.85R
OELWEIN        CLOUDY    70  68  94 W9        29.85R
$$

...ELSEWHERE IN IOWA...


CITY           SKY/WX    TMP DP  RH WIND       PRES   REMARKS
DES MOINES     PTSUNNY   72  65  78 NW7       29.89R
IOWA CITY      CLOUDY    71  67  87 W12       29.87R
FORT DODGE     CLOUDY    66  64  94 NW7       29.90S
MARSHALLTOWN   CLOUDY    70  66  87 W9        29.87R
CEDAR RAPIDS   CLOUDY    71  68  90 W13       29.85R
$$

...NORTHERN ILLINOIS...


CITY           SKY/WX    TMP DP  RH WIND       PRES   REMARKS
CHICAGO-OHARE  PTSUNNY   77  66  68 SW13G21   29.85S
DUPAGE         CLOUDY    75  68  78 SW15G22   29.85F
CHICAGO-MIDWAY PTSUNNY   79  71  76 S17G24    29.86S
MOLINE         CLOUDY    74  67  78 W13       29.86R
ROCKFORD       CLOUDY    73  67  81 SW15G24   29.84S
STERLING       CLOUDY    73  66  78 W15G21    29.86R
PEORIA         CLOUDY    77  70  79 SW13      29.90R
$$

NOTE: "FAIR" INDICATES FEW OR NO CLOUDS BELOW 12,000 FEET WITH NO
SIGNIFICANT WEATHER AND/OR OBSTRUCTIONS TO VISIBILITY. WIND
SPEEDS ARE IN MILES-PER-HOUR.



USA.gov is the U.S. government's official web portal to all federal, state and local government web resources and services.